Hourly Data Report for June 28, 2004

SHERBROOKE A
QUEBEC

45°26'00.000" N
71°41'00.000" W
241.40 m
7028124
71610
YSC

Download Data

Hourly Data (June 2004)
Hourly Data Report for June 28, 2004
TIME
LST
Temp Definition
°C
Dew Point Definition
°C
Rel Hum Definition
%
Precip. Amount Definition
mm

Wind Dir Definition
10's deg

Wind Spd Definition
km/h
Visibility Definition
km
Stn Press Definition
kPa
Hmdx Definition


Wind Chill Definition


Weather Definition


00:00 11.4 9.1 86   25 6 15.0 98.54      
01:00 9.2 7.5 89     0 15.0 98.56      
02:00 6.8 5.9 94     0 0.6 98.57      
03:00 6.9 6.1 95     0 15.0 98.59      
04:00 7.3 6.3 93   21 4 15.0 98.67      
05:00 8.5 7.7 95     0 15.0 98.73      
06:00 11.8 9.8 88   21 6 15.0 98.72      
07:00 13.4 10.6 83   27 7 24.1 98.73     Mostly Cloudy
08:00 15.0 10.3 73   24 7 24.1 98.76     Mostly Cloudy
09:00 17.2 10.5 65   23 9 24.1 98.75     Mostly Cloudy
10:00 17.2 7.2 52   25 11 24.1 98.74     Mostly Cloudy
11:00 17.6 7.9 53   28 13 24.1 98.72     Mostly Cloudy
12:00 17.6 8.6 56   27 13 24.1 98.70     Rain Showers
13:00 17.3 12.6 74   27 11 24.1 98.68     Mostly Cloudy
14:00 18.7 9.1 54   28 22 24.1 98.63     Mostly Cloudy
15:00 18.2 10.8 62   31 13 24.1 98.61     Mainly Clear
16:00 19.8 8.3 47   27 19 24.1 98.59     Mainly Clear
17:00 19.3 8.7 50   21 11 15.0 98.57      
18:00 18.5 9.6 56   23 11 15.0 98.58      
19:00 16.3 9.8 65   20 6 15.0 98.60      
20:00 14.6 9.4 71   19 7 15.0 98.61      
21:00 13.2 9.8 80   30 6 15.0 98.66      
22:00 12.5 9.9 84   14 4 15.0 98.67      
23:00 11.4 9.3 87   6 4 15.0 98.66      

Notes on Data Quality.

Legend

  • E = Estimated
  • M = Missing
  • NA = Not Available*
  • [empty] = Indicates an unobserved value
Date modified: